TimeCST,TemperatureF,Dew PointF,Humidity,Sea Level PressureIn,VisibilityMPH,Wind Direction,Wind SpeedMPH,Gust SpeedMPH,PrecipitationIn,Events,Conditions,WindDirDegrees,DateUTC
12:15 AM,10.4,8.6,92,30.15,2.0,NW,19.6,36.8,N/A,Snow,Light Snow,310,2012-11-23 06:15:00
12:55 AM,10.4,8.6,92,30.16,2.0,NW,19.6,28.8,N/A,Snow,Light Snow,310,2012-11-23 06:55:00
1:15 AM,10.4,8.6,92,30.18,2.5,NW,20.7,29.9,N/A,Snow,Light Snow,310,2012-11-23 07:15:00
1:36 AM,10.4,8.6,92,30.18,2.0,NW,21.9,29.9,N/A,Snow,Light Snow,320,2012-11-23 07:36:00
1:55 AM,10.4,8.6,92,30.20,2.0,NW,20.7,29.9,N/A,Snow,Light Snow,310,2012-11-23 07:55:00
2:15 AM,10.4,8.6,92,30.21,1.8,NW,24.2,29.9,N/A,Snow,Light Snow,310,2012-11-23 08:15:00
2:35 AM,10.4,8.6,92,30.22,2.0,NW,21.9,28.8,N/A,Snow,Light Snow,310,2012-11-23 08:35:00
2:55 AM,10.4,8.6,92,30.24,2.5,NW,18.4,26.5,N/A,Snow,Light Snow,320,2012-11-23 08:55:00
3:15 AM,12.2,8.6,85,30.25,3.0,NW,20.7,25.3,N/A,Snow,Light Snow,310,2012-11-23 09:15:00
3:35 AM,12.2,8.6,85,30.25,3.0,NW,19.6,27.6,N/A,Snow,Light Snow,310,2012-11-23 09:35:00
3:55 AM,12.2,8.6,85,30.25,3.0,NW,17.3,26.5,N/A,Snow,Light Snow,320,2012-11-23 09:55:00
4:15 AM,12.2,10.4,92,30.27,4.0,NW,18.4,25.3,N/A,Snow,Light Snow,320,2012-11-23 10:15:00
4:35 AM,12.2,10.4,92,30.28,3.0,NW,17.3,21.9,N/A,Snow,Light Snow,320,2012-11-23 10:35:00
4:55 AM,12.2,8.6,85,30.29,3.0,NW,18.4,25.3,N/A,Snow,Light Snow,310,2012-11-23 10:55:00
5:15 AM,12.2,8.6,85,30.30,2.5,NW,17.3,23.0,N/A,Snow,Light Snow,320,2012-11-23 11:15:00
5:35 AM,12.2,10.4,92,30.31,4.0,NW,17.3,23.0,N/A,Snow,Light Snow,320,2012-11-23 11:35:00
5:55 AM,12.2,8.6,85,30.31,3.0,NW,16.1,21.9,N/A,Snow,Light Snow,320,2012-11-23 11:55:00
6:15 AM,12.2,8.6,85,30.32,4.0,NW,17.3,-,N/A,Snow,Light Snow,320,2012-11-23 12:15:00
6:35 AM,12.2,10.4,92,30.33,4.0,NW,13.8,23.0,N/A,Snow,Light Snow,320,2012-11-23 12:35:00
6:55 AM,12.2,8.6,85,30.33,4.0,NW,13.8,21.9,N/A,Snow,Light Snow,320,2012-11-23 12:55:00
7:15 AM,12.2,10.4,92,30.34,3.0,NW,15.0,-,N/A,Snow,Light Snow,320,2012-11-23 13:15:00
7:35 AM,12.2,8.6,85,30.34,4.0,NW,13.8,23.0,N/A,Snow,Light Snow,320,2012-11-23 13:35:00
7:55 AM,12.2,8.6,85,30.35,3.0,NW,16.1,23.0,N/A,Snow,Light Snow,320,2012-11-23 13:55:00
8:15 AM,12.2,8.6,85,30.36,3.0,NW,15.0,19.6,N/A,Snow,Light Snow,320,2012-11-23 14:15:00
8:35 AM,12.2,8.6,85,30.36,2.5,NW,16.1,20.7,N/A,Snow,Light Snow,320,2012-11-23 14:35:00
8:55 AM,12.2,8.6,85,30.36,1.5,NW,16.1,21.9,N/A,Snow,Light Snow,310,2012-11-23 14:55:00
9:15 AM,12.2,8.6,85,30.37,3.0,NW,13.8,19.6,N/A,Snow,Light Snow,310,2012-11-23 15:15:00
9:35 AM,12.2,8.6,85,30.37,2.5,NW,12.7,-,N/A,Snow,Light Snow,320,2012-11-23 15:35:00
9:55 AM,12.2,8.6,85,30.38,2.0,NW,12.7,19.6,N/A,Snow,Light Snow,320,2012-11-23 15:55:00
10:15 AM,12.2,8.6,85,30.39,2.0,NW,12.7,17.3,N/A,Snow,Light Snow,310,2012-11-23 16:15:00
10:35 AM,14.0,8.6,79,30.40,1.8,NW,13.8,20.7,N/A,Snow,Light Snow,310,2012-11-23 16:35:00
10:55 AM,14.0,8.6,79,30.41,2.0,NW,13.8,21.9,N/A,Snow,Light Snow,310,2012-11-23 16:55:00
11:15 AM,14.0,8.6,79,30.40,4.0,NW,15.0,-,N/A,Snow,Light Snow,320,2012-11-23 17:15:00
11:35 AM,14.0,8.6,79,30.41,2.5,NW,11.5,17.3,N/A,Snow,Light Snow,310,2012-11-23 17:35:00
11:55 AM,15.8,8.6,73,30.40,5.0,NW,11.5,-,N/A,Snow,Light Snow,310,2012-11-23 17:55:00
12:15 PM,15.8,8.6,73,30.40,3.0,NW,11.5,-,N/A,Snow,Light Snow,320,2012-11-23 18:15:00
12:35 PM,15.8,8.6,73,30.40,7.0,NW,10.4,-,N/A,Snow,Light Snow,310,2012-11-23 18:35:00
12:55 PM,15.8,8.6,73,30.39,4.0,NW,10.4,-,N/A,Snow,Light Snow,320,2012-11-23 18:55:00
1:15 PM,14.0,8.6,79,30.39,5.0,NW,11.5,18.4,N/A,Snow,Light Snow,310,2012-11-23 19:15:00
1:35 PM,14.0,8.6,79,30.39,3.0,WNW,9.2,-,N/A,Snow,Light Snow,300,2012-11-23 19:35:00
1:55 PM,14.0,8.6,79,30.39,5.0,WNW,11.5,19.6,N/A,Snow,Light Snow,300,2012-11-23 19:55:00
2:15 PM,14.0,8.6,79,30.39,2.5,NW,10.4,-,N/A,Snow,Light Snow,310,2012-11-23 20:15:00
2:35 PM,12.2,8.6,85,30.40,2.5,NW,11.5,-,N/A,Snow,Light Snow,320,2012-11-23 20:35:00
2:55 PM,12.2,6.8,79,30.39,7.0,NW,11.5,17.3,N/A,Snow,Light Snow,310,2012-11-23 20:55:00
3:15 PM,12.2,6.8,79,30.39,10.0,NW,10.4,16.1,N/A,Snow,Light Snow,310,2012-11-23 21:15:00
3:35 PM,12.2,8.6,85,30.40,3.0,NW,9.2,-,N/A,Snow,Light Snow,310,2012-11-23 21:35:00
3:55 PM,12.2,6.8,79,30.41,10.0,NW,15.0,-,N/A,Snow,Light Snow,310,2012-11-23 21:55:00
4:15 PM,12.2,6.8,79,30.41,7.0,NW,11.5,-,N/A,Snow,Light Snow,310,2012-11-23 22:15:00
4:35 PM,10.4,6.8,85,30.41,10.0,NW,9.2,-,N/A,,Overcast,310,2012-11-23 22:35:00
4:55 PM,10.4,6.8,85,30.40,7.0,NW,8.1,-,N/A,Snow,Light Snow,310,2012-11-23 22:55:00
5:15 PM,10.4,8.6,92,30.40,3.0,NW,6.9,-,N/A,Snow,Light Snow,320,2012-11-23 23:15:00
5:35 PM,10.4,6.8,85,30.40,3.0,NW,6.9,-,N/A,Snow,Light Snow,310,2012-11-23 23:35:00
5:55 PM,10.4,6.8,85,30.40,10.0,NW,10.4,-,N/A,Snow,Light Snow,310,2012-11-23 23:55:00
6:15 PM,10.4,6.8,85,30.40,7.0,NW,9.2,16.1,N/A,Snow,Light Snow,310,2012-11-24 00:15:00
6:35 PM,10.4,6.8,85,30.40,7.0,NW,8.1,-,N/A,Snow,Light Snow,310,2012-11-24 00:35:00
6:55 PM,10.4,6.8,85,30.40,7.0,NNW,8.1,-,N/A,Snow,Light Snow,330,2012-11-24 00:55:00
7:15 PM,10.4,6.8,85,30.39,10.0,NNW,5.8,-,N/A,Snow,Light Snow,330,2012-11-24 01:15:00
7:35 PM,10.4,6.8,85,30.39,7.0,NNW,8.1,-,N/A,Snow,Light Snow,330,2012-11-24 01:35:00
7:55 PM,10.4,6.8,85,30.39,7.0,NW,9.2,-,N/A,Snow,Light Snow,310,2012-11-24 01:55:00
8:15 PM,8.6,6.8,92,30.38,7.0,NW,5.8,-,N/A,Snow,Light Snow,310,2012-11-24 02:15:00
8:35 PM,8.6,5.0,85,30.38,7.0,NW,8.1,-,N/A,Snow,Light Snow,320,2012-11-24 02:35:00
8:55 PM,8.6,5.0,85,30.38,7.0,NW,6.9,-,N/A,Snow,Light Snow,310,2012-11-24 02:55:00
9:15 PM,8.6,5.0,85,30.37,5.0,Calm,Calm,-,N/A,Snow,Light Snow,0,2012-11-24 03:15:00
9:35 PM,8.6,3.2,79,30.36,7.0,Calm,Calm,-,N/A,Snow,Light Snow,0,2012-11-24 03:35:00
9:55 PM,8.6,5.0,85,30.37,10.0,NW,4.6,-,N/A,Snow,Light Snow,320,2012-11-24 03:55:00
10:15 PM,8.6,3.2,79,30.36,10.0,NNW,5.8,-,N/A,Snow,Light Snow,330,2012-11-24 04:15:00
10:35 PM,6.8,3.2,85,30.35,10.0,NNW,5.8,-,N/A,Snow,Light Snow,340,2012-11-24 04:35:00
10:55 PM,6.8,3.2,85,30.35,5.0,Calm,Calm,-,N/A,Snow,Light Snow,0,2012-11-24 04:55:00
11:15 PM,6.8,3.2,85,30.35,3.0,Calm,Calm,-,N/A,Snow,Light Snow,0,2012-11-24 05:15:00
11:35 PM,5.0,1.4,85,30.34,7.0,Calm,Calm,-,N/A,Snow,Light Snow,0,2012-11-24 05:35:00